date,time,SUV Intensity [MED/Hr],UV Index,Daily total [MED],Since Last [MED]
11/04/2022,00:06:47,0.000,0.0,0.0,0.0
11/04/2022,00:07:47,0.000,0.0,0.0,0.0
11/04/2022,00:08:47,0.000,0.0,0.0,0.0
11/04/2022,00:09:47,0.000,0.0,0.0,0.0
11/04/2022,00:10:46,0.000,0.0,0.0,0.0
11/04/2022,00:11:55,0.000,0.0,0.0,0.0
11/04/2022,00:13:47,0.001,0.0,0.0,0.0
11/04/2022,00:14:46,0.000,0.0,0.0,0.0
11/04/2022,00:15:47,0.000,0.0,0.0,0.0
11/04/2022,00:16:47,0.000,0.0,0.0,0.0
11/04/2022,00:17:46,0.000,0.0,0.0,0.0
11/04/2022,00:18:47,0.000,0.0,0.0,0.0
11/04/2022,00:19:46,0.000,0.0,0.0,0.0
11/04/2022,00:20:47,0.001,0.0,0.0,0.0
11/04/2022,00:21:47,-0.001,0.0,0.0,0.0
11/04/2022,00:22:47,0.000,0.0,0.0,0.0
11/04/2022,00:23:47,0.000,0.0,0.0,0.0
11/04/2022,00:24:48,0.000,0.0,0.0,0.0
11/04/2022,00:25:47,0.000,0.0,0.0,0.0
11/04/2022,00:26:47,0.000,0.0,0.0,0.0
11/04/2022,00:27:46,0.000,0.0,0.0,0.0
11/04/2022,00:28:47,0.000,0.0,0.0,0.0
11/04/2022,00:29:55,0.000,0.0,0.0,0.0
11/04/2022,00:30:46,0.000,0.0,0.0,0.0
11/04/2022,00:31:49,0.001,0.0,0.0,0.0
11/04/2022,00:32:53,0.000,0.0,0.0,0.0
11/04/2022,00:33:46,0.000,0.0,0.0,0.0
11/04/2022,00:34:47,0.000,0.0,0.0,0.0
11/04/2022,00:35:47,0.000,0.0,0.0,0.0
11/04/2022,00:36:46,0.001,0.0,0.0,0.0
11/04/2022,00:37:47,0.000,0.0,0.0,0.0
11/04/2022,00:38:46,0.000,0.0,0.0,0.0
11/04/2022,00:39:55,0.000,0.0,0.0,0.0
11/04/2022,00:40:47,0.000,0.0,0.0,0.0
11/04/2022,00:41:47,0.000,0.0,0.0,0.0
11/04/2022,00:42:47,0.000,0.0,0.0,0.0
11/04/2022,00:43:47,0.000,0.0,0.0,0.0
11/04/2022,00:44:46,0.000,0.0,0.0,0.0
11/04/2022,00:45:47,0.000,0.0,0.0,0.0
11/04/2022,00:46:47,0.000,0.0,0.0,0.0
11/04/2022,00:47:55,0.000,0.0,0.0,0.0
11/04/2022,00:49:47,0.000,0.0,0.0,0.0
11/04/2022,00:50:47,0.000,0.0,0.0,0.0
11/04/2022,00:51:47,0.000,0.0,0.0,0.0
11/04/2022,00:52:47,0.000,0.0,0.0,0.0
11/04/2022,00:53:47,0.000,0.0,0.0,0.0
11/04/2022,00:54:47,0.000,0.0,0.0,0.0
11/04/2022,00:55:47,0.000,0.0,0.0,0.0
11/04/2022,00:56:46,0.000,0.0,0.0,0.0
11/04/2022,00:57:46,0.000,0.0,0.0,0.0
11/04/2022,00:58:47,0.000,0.0,0.0,0.0
11/04/2022,00:59:46,0.000,0.0,0.0,0.0
11/04/2022,01:00:46,0.000,0.0,0.0,0.0
11/04/2022,01:01:47,0.000,0.0,0.0,0.0
11/04/2022,01:02:47,0.000,0.0,0.0,0.0
11/04/2022,01:03:47,0.000,0.0,0.0,0.0
11/04/2022,01:04:47,0.000,0.0,0.0,0.0
11/04/2022,01:05:47,0.000,0.0,0.0,0.0
11/04/2022,01:06:47,0.001,0.0,0.0,0.0
11/04/2022,01:07:46,0.000,0.0,0.0,0.0
11/04/2022,01:08:55,0.000,0.0,0.0,0.0
11/04/2022,01:09:48,0.000,0.0,0.0,0.0
11/04/2022,01:10:47,0.000,0.0,0.0,0.0
11/04/2022,01:11:46,0.000,0.0,0.0,0.0
11/04/2022,01:12:47,0.000,0.0,0.0,0.0
11/04/2022,01:13:47,0.000,0.0,0.0,0.0
11/04/2022,01:14:47,0.000,0.0,0.0,0.0
11/04/2022,01:15:46,0.000,0.0,0.0,0.0
11/04/2022,01:16:47,0.000,0.0,0.0,0.0
11/04/2022,01:17:47,0.001,0.0,0.0,0.0
11/04/2022,01:18:55,0.000,0.0,0.0,0.0
11/04/2022,01:20:56,0.000,0.0,0.0,0.0
11/04/2022,01:21:45,0.000,0.0,0.0,0.0
11/04/2022,01:22:47,0.000,0.0,0.0,0.0
11/04/2022,01:23:46,0.000,0.0,0.0,0.0
11/04/2022,01:25:03,0.001,0.0,0.0,0.0
11/04/2022,01:26:48,0.000,0.0,0.0,0.0
11/04/2022,01:27:46,0.000,0.0,0.0,0.0
11/04/2022,01:28:47,0.000,0.0,0.0,0.0
11/04/2022,01:29:46,0.001,0.0,0.0,0.0
11/04/2022,01:30:46,0.000,0.0,0.0,0.0
11/04/2022,01:31:47,0.000,0.0,0.0,0.0
11/04/2022,01:32:46,0.000,0.0,0.0,0.0
11/04/2022,01:33:55,0.000,0.0,0.0,0.0
11/04/2022,01:35:48,0.000,0.0,0.0,0.0
11/04/2022,01:36:55,0.000,0.0,0.0,0.0
11/04/2022,01:37:46,0.000,0.0,0.0,0.0
11/04/2022,01:38:47,0.000,0.0,0.0,0.0
11/04/2022,01:39:46,-0.000,0.0,0.0,0.0
11/04/2022,01:40:46,0.000,0.0,0.0,0.0
11/04/2022,01:41:47,0.000,0.0,0.0,0.0
11/04/2022,01:42:47,0.000,0.0,0.0,0.0
11/04/2022,01:43:47,0.000,0.0,0.0,0.0
11/04/2022,01:44:55,0.000,0.0,0.0,0.0
11/04/2022,01:46:48,0.000,0.0,0.0,0.0
11/04/2022,01:47:47,0.000,0.0,0.0,0.0
11/04/2022,01:48:46,0.000,0.0,0.0,0.0
11/04/2022,01:49:47,0.000,0.0,0.0,0.0
11/04/2022,01:50:47,0.000,0.0,0.0,0.0
11/04/2022,01:51:46,0.000,0.0,0.0,0.0
11/04/2022,01:52:47,0.000,0.0,0.0,0.0
11/04/2022,01:53:47,0.000,0.0,0.0,0.0
11/04/2022,01:54:55,0.000,0.0,0.0,0.0
11/04/2022,01:55:46,0.000,0.0,0.0,0.0
11/04/2022,01:56:59,0.000,0.0,0.0,0.0
11/04/2022,01:58:48,0.000,0.0,0.0,0.0
11/04/2022,01:59:46,0.000,0.0,0.0,0.0
11/04/2022,02:00:46,0.000,0.0,0.0,0.0
11/04/2022,02:01:54,0.000,0.0,0.0,0.0
11/04/2022,02:02:46,0.000,0.0,0.0,0.0
11/04/2022,02:03:47,0.000,0.0,0.0,0.0
11/04/2022,02:04:47,0.000,0.0,0.0,0.0
11/04/2022,02:05:46,0.000,0.0,0.0,0.0
11/04/2022,02:06:47,0.000,0.0,0.0,0.0
11/04/2022,02:07:46,0.001,0.0,0.0,0.0
11/04/2022,02:08:47,0.000,0.0,0.0,0.0
11/04/2022,02:09:56,-0.001,0.0,0.0,0.0
11/04/2022,02:10:47,0.000,0.0,0.0,0.0
11/04/2022,02:11:47,0.000,0.0,0.0,0.0
11/04/2022,02:12:47,0.000,0.0,0.0,0.0
11/04/2022,02:14:04,-0.001,0.0,0.0,0.0
11/04/2022,02:15:47,0.000,0.0,0.0,0.0
11/04/2022,02:16:55,0.000,0.0,0.0,0.0
11/04/2022,02:17:46,0.000,0.0,0.0,0.0
11/04/2022,02:18:46,0.000,0.0,0.0,0.0
11/04/2022,02:19:47,0.000,0.0,0.0,0.0
11/04/2022,02:20:55,0.000,0.0,0.0,0.0
11/04/2022,02:21:46,0.000,0.0,0.0,0.0
11/04/2022,02:22:47,0.000,0.0,0.0,0.0
11/04/2022,02:23:48,0.000,0.0,0.0,0.0
11/04/2022,02:24:55,0.000,0.0,0.0,0.0
11/04/2022,02:25:47,0.000,0.0,0.0,0.0
11/04/2022,02:26:47,0.000,0.0,0.0,0.0
11/04/2022,02:27:47,0.000,0.0,0.0,0.0
11/04/2022,02:28:47,0.000,0.0,0.0,0.0
11/04/2022,02:29:46,0.000,0.0,0.0,0.0
11/04/2022,02:30:55,0.000,0.0,0.0,0.0
11/04/2022,02:32:48,0.000,0.0,0.0,0.0
11/04/2022,02:33:46,0.000,0.0,0.0,0.0
11/04/2022,02:34:47,0.000,0.0,0.0,0.0
11/04/2022,02:35:47,0.000,0.0,0.0,0.0
11/04/2022,02:36:47,0.000,0.0,0.0,0.0
11/04/2022,02:37:55,0.001,0.0,0.0,0.0
11/04/2022,02:39:47,0.000,0.0,0.0,0.0
11/04/2022,02:40:48,0.000,0.0,0.0,0.0
11/04/2022,02:41:46,0.000,0.0,0.0,0.0
11/04/2022,02:42:47,0.000,0.0,0.0,0.0
11/04/2022,02:43:47,0.000,0.0,0.0,0.0
11/04/2022,02:44:47,0.000,0.0,0.0,0.0
11/04/2022,02:45:47,0.001,0.0,0.0,0.0
11/04/2022,02:46:46,0.000,0.0,0.0,0.0
11/04/2022,02:47:47,0.000,0.0,0.0,0.0
11/04/2022,02:48:56,0.000,0.0,0.0,0.0
11/04/2022,02:50:47,0.002,0.0,0.0,0.0
11/04/2022,02:51:47,0.001,0.0,0.0,0.0
11/04/2022,02:52:47,0.000,0.0,0.0,0.0
11/04/2022,02:53:47,0.001,0.0,0.0,0.0
11/04/2022,02:54:47,0.000,0.0,0.0,0.0
11/04/2022,02:55:55,0.000,0.0,0.0,0.0
11/04/2022,02:56:47,0.001,0.0,0.0,0.0
11/04/2022,02:57:47,0.001,0.0,0.0,0.0
11/04/2022,02:58:47,0.000,0.0,0.0,0.0
11/04/2022,02:59:47,0.002,0.0,0.0,0.0
11/04/2022,03:00:46,0.001,0.0,0.0,0.0
11/04/2022,03:01:47,0.000,0.0,0.0,0.0
11/04/2022,03:02:55,0.001,0.0,0.0,0.0
11/04/2022,03:03:55,0.000,0.0,0.0,0.0
11/04/2022,03:04:46,0.001,0.0,0.0,0.0
11/04/2022,03:05:47,0.001,0.0,0.0,0.0
11/04/2022,03:06:46,0.000,0.0,0.0,0.0
11/04/2022,03:07:47,0.001,0.0,0.0,0.0
11/04/2022,03:08:48,0.002,0.0,0.0,0.0
11/04/2022,03:09:46,0.001,0.0,0.0,0.0
11/04/2022,03:10:47,0.001,0.0,0.0,0.0
11/04/2022,03:11:47,0.001,0.0,0.0,0.0
11/04/2022,03:12:47,0.001,0.0,0.0,0.0
11/04/2022,03:13:47,0.001,0.0,0.0,0.0
11/04/2022,03:14:46,0.001,0.0,0.0,0.0
11/04/2022,03:15:47,0.000,0.0,0.0,0.0
11/04/2022,03:16:48,0.001,0.0,0.0,0.0
11/04/2022,03:17:56,0.001,0.0,0.0,0.0
11/04/2022,03:19:48,0.001,0.0,0.0,0.0
11/04/2022,03:20:47,0.001,0.0,0.0,0.0
11/04/2022,03:21:47,0.002,0.0,0.0,0.0
11/04/2022,03:22:47,0.000,0.0,0.0,0.0
11/04/2022,03:23:47,0.000,0.0,0.0,0.0
11/04/2022,03:24:46,0.001,0.0,0.0,0.0
11/04/2022,03:25:55,0.001,0.0,0.0,0.0
11/04/2022,03:27:48,0.001,0.0,0.0,0.0
11/04/2022,03:28:55,0.000,0.0,0.0,0.0
11/04/2022,03:29:46,0.001,0.0,0.0,0.0
11/04/2022,03:30:46,0.001,0.0,0.0,0.0
11/04/2022,03:31:47,0.001,0.0,0.0,0.0
11/04/2022,03:32:47,-0.001,0.0,0.0,0.0
11/04/2022,03:33:47,0.001,0.0,0.0,0.0
11/04/2022,03:34:47,0.002,0.0,0.0,0.0
11/04/2022,03:35:55,0.001,0.0,0.0,0.0
11/04/2022,03:37:47,0.000,0.0,0.0,0.0
11/04/2022,03:38:47,0.001,0.0,0.0,0.0
11/04/2022,03:39:46,0.001,0.0,0.0,0.0
11/04/2022,03:40:47,0.001,0.0,0.0,0.0
11/04/2022,03:41:47,0.001,0.0,0.0,0.0
11/04/2022,03:42:47,0.000,0.0,0.0,0.0
11/04/2022,03:43:55,0.001,0.0,0.0,0.0
11/04/2022,03:45:48,0.001,0.0,0.0,0.0
11/04/2022,03:46:47,0.001,0.0,0.0,0.0
11/04/2022,03:47:47,0.000,0.0,0.0,0.0
11/04/2022,03:48:47,0.001,0.0,0.0,0.0
11/04/2022,03:49:56,0.002,0.0,0.0,0.0
11/04/2022,03:50:56,0.000,0.0,0.0,0.0
11/04/2022,03:52:47,0.001,0.0,0.0,0.0
11/04/2022,03:53:47,0.001,0.0,0.0,0.0
11/04/2022,03:54:47,0.000,0.0,0.0,0.0
11/04/2022,03:55:47,0.001,0.0,0.0,0.0
11/04/2022,03:56:47,0.002,0.0,0.0,0.0
11/04/2022,03:57:47,0.001,0.0,0.0,0.0
11/04/2022,03:58:47,0.001,0.0,0.0,0.0
11/04/2022,03:59:47,0.001,0.0,0.0,0.0
11/04/2022,04:00:47,0.001,0.0,0.0,0.0
11/04/2022,04:01:47,0.001,0.0,0.0,0.0
11/04/2022,04:02:47,0.001,0.0,0.0,0.0
11/04/2022,04:03:47,0.000,0.0,0.0,0.0
11/04/2022,04:04:47,0.001,0.0,0.0,0.0
11/04/2022,04:05:47,0.001,0.0,0.0,0.0
11/04/2022,04:06:47,0.002,0.0,0.0,0.0
11/04/2022,04:07:56,0.001,0.0,0.0,0.0
11/04/2022,04:09:55,0.001,0.0,0.0,0.0
11/04/2022,04:11:48,0.000,0.0,0.0,0.0
11/04/2022,04:12:47,0.001,0.0,0.0,0.0
11/04/2022,04:13:47,0.001,0.0,0.0,0.0
11/04/2022,04:14:46,0.001,0.0,0.0,0.0
11/04/2022,04:15:56,0.001,0.0,0.0,0.0
11/04/2022,04:16:47,0.001,0.0,0.0,0.0
11/04/2022,04:17:47,0.001,0.0,0.0,0.0
11/04/2022,04:18:47,0.001,0.0,0.0,0.0
11/04/2022,04:19:47,0.001,0.0,0.0,0.0
11/04/2022,04:20:47,0.001,0.0,0.0,0.0
11/04/2022,04:21:47,0.001,0.0,0.0,0.0
11/04/2022,04:22:55,0.001,0.0,0.0,0.0
11/04/2022,04:24:48,0.001,0.0,0.0,0.0
11/04/2022,04:25:47,0.001,0.0,0.0,0.0
11/04/2022,04:26:47,0.001,0.0,0.0,0.0
11/04/2022,04:27:47,0.001,0.0,0.0,0.0
11/04/2022,04:28:47,0.002,0.0,0.0,0.0
11/04/2022,04:29:47,0.000,0.0,0.0,0.0
11/04/2022,04:30:47,0.001,0.0,0.0,0.0
11/04/2022,04:31:47,0.000,0.0,0.0,0.0
11/04/2022,04:32:47,0.001,0.0,0.0,0.0
11/04/2022,04:33:47,0.001,0.0,0.0,0.0
11/04/2022,04:34:48,0.001,0.0,0.0,0.0
11/04/2022,04:35:47,0.000,0.0,0.0,0.0
11/04/2022,04:36:47,0.001,0.0,0.0,0.0
11/04/2022,04:37:47,0.000,0.0,0.0,0.0
11/04/2022,04:38:47,0.001,0.0,0.0,0.0
11/04/2022,04:39:47,0.001,0.0,0.0,0.0
11/04/2022,04:40:47,0.001,0.0,0.0,0.0
11/04/2022,04:41:55,0.000,0.0,0.0,0.0
11/04/2022,04:43:47,0.001,0.0,0.0,0.0
11/04/2022,04:44:47,0.002,0.0,0.0,0.0
11/04/2022,04:45:47,0.000,0.0,0.0,0.0
11/04/2022,04:46:47,0.000,0.0,0.0,0.0
11/04/2022,04:47:47,0.001,0.0,0.0,0.0
11/04/2022,04:48:47,0.002,0.0,0.0,0.0
11/04/2022,04:49:47,0.000,0.0,0.0,0.0
11/04/2022,04:50:47,0.001,0.0,0.0,0.0
11/04/2022,04:51:47,0.001,0.0,0.0,0.0
11/04/2022,04:52:47,0.001,0.0,0.0,0.0
11/04/2022,04:53:47,0.001,0.0,0.0,0.0
11/04/2022,04:54:47,0.000,0.0,0.0,0.0
11/04/2022,04:55:47,0.000,0.0,0.0,0.0
11/04/2022,04:56:55,0.001,0.0,0.0,0.0
11/04/2022,04:57:47,0.000,0.0,0.0,0.0
11/04/2022,04:58:47,-0.000,0.0,0.0,0.0
11/04/2022,04:59:47,0.001,0.0,0.0,0.0
11/04/2022,05:00:47,0.001,0.0,0.0,0.0
11/04/2022,05:01:47,0.000,0.0,0.0,0.0
11/04/2022,05:02:47,0.001,0.0,0.0,0.0
11/04/2022,05:03:56,0.002,0.0,0.0,0.0
11/04/2022,05:04:47,0.000,0.0,0.0,0.0
11/04/2022,05:05:47,0.001,0.0,0.0,0.0
11/04/2022,05:06:56,0.001,0.0,0.0,0.0
11/04/2022,05:08:48,0.001,0.0,0.0,0.0
11/04/2022,05:09:47,0.000,0.0,0.0,0.0
11/04/2022,05:10:47,0.001,0.0,0.0,0.0
11/04/2022,05:11:47,0.001,0.0,0.0,0.0
11/04/2022,05:12:47,0.002,0.0,0.0,0.0
11/04/2022,05:13:55,0.002,0.0,0.0,0.0
11/04/2022,05:14:54,0.001,0.0,0.0,0.0
11/04/2022,05:16:48,0.001,0.0,0.0,0.0
11/04/2022,05:17:49,0.001,0.0,0.0,0.0
11/04/2022,05:18:47,0.002,0.0,0.0,0.0
11/04/2022,05:19:47,0.001,0.0,0.0,0.0
11/04/2022,05:20:47,0.002,0.0,0.0,0.0
11/04/2022,05:21:47,0.002,0.0,0.0,0.0
11/04/2022,05:22:47,0.002,0.0,0.0,0.0
11/04/2022,05:23:48,0.001,0.0,0.0,0.0
11/04/2022,05:24:55,0.002,0.0,0.0,0.0
11/04/2022,05:25:56,0.003,0.0,0.0,0.0
11/04/2022,05:27:47,0.002,0.0,0.0,0.0
11/04/2022,05:28:47,0.002,0.0,0.0,0.0
11/04/2022,05:29:47,0.002,0.0,0.0,0.0
11/04/2022,05:30:47,0.002,0.0,0.0,0.0
11/04/2022,05:31:47,0.003,0.0,0.0,0.0
11/04/2022,05:32:47,0.002,0.0,0.0,0.0
11/04/2022,05:33:47,0.003,0.0,0.0,0.0
11/04/2022,05:34:47,0.003,0.0,0.0,0.0
11/04/2022,05:35:47,0.003,0.0,0.0,0.0
11/04/2022,05:36:47,0.003,0.0,0.0,0.0
11/04/2022,05:37:47,0.004,0.0,0.0,0.0
11/04/2022,05:38:47,0.003,0.0,0.0,0.0
11/04/2022,05:39:56,0.004,0.0,0.0,0.0
11/04/2022,05:41:56,0.005,0.0,0.0,0.0
11/04/2022,05:43:47,0.005,0.0,0.0,0.0
11/04/2022,05:44:47,0.006,0.0,0.0,0.0
11/04/2022,05:45:47,0.006,0.0,0.0,0.0
11/04/2022,05:46:47,0.006,0.0,0.0,0.0
11/04/2022,05:47:55,0.007,0.0,0.0,0.0
11/04/2022,05:48:47,0.007,0.0,0.0,0.0
11/04/2022,05:49:47,0.008,0.0,0.0,0.0
11/04/2022,05:50:47,0.008,0.0,0.001,0.001
11/04/2022,05:51:47,0.008,0.0,0.001,0.0
11/04/2022,05:52:47,0.008,0.0,0.001,0.0
11/04/2022,05:53:47,0.009,0.0,0.001,0.0
11/04/2022,05:54:47,0.011,0.0,0.001,0.0
11/04/2022,05:55:47,0.010,0.0,0.001,0.0
11/04/2022,05:56:47,0.012,0.0,0.002,0.001
11/04/2022,05:57:47,0.010,0.0,0.002,0.0
11/04/2022,05:58:47,0.011,0.0,0.002,0.0
11/04/2022,05:59:47,0.011,0.0,0.002,0.0
11/04/2022,06:00:48,0.012,0.0,0.002,0.0
11/04/2022,06:01:47,0.013,0.0,0.002,0.0
11/04/2022,06:02:47,0.013,0.0,0.003,0.001
11/04/2022,06:03:47,0.014,0.0,0.003,0.0
11/04/2022,06:04:47,0.014,0.0,0.003,0.0
11/04/2022,06:05:56,0.015,0.0,0.003,0.0
11/04/2022,06:06:47,0.016,0.0,0.004,0.001
11/04/2022,06:07:48,0.017,0.0,0.004,0.0
11/04/2022,06:08:47,0.017,0.0,0.004,0.0
11/04/2022,06:09:47,0.018,0.0,0.004,0.0
11/04/2022,06:10:48,0.018,0.0,0.005,0.001
11/04/2022,06:11:47,0.019,0.0,0.005,0.0
11/04/2022,06:12:55,0.019,0.0,0.005,0.0
11/04/2022,06:13:55,0.020,0.0,0.006,0.001
11/04/2022,06:14:47,0.021,0.0,0.006,0.0
11/04/2022,06:15:47,0.021,0.0,0.006,0.0
11/04/2022,06:16:47,0.022,0.0,0.007,0.001
11/04/2022,06:17:47,0.024,0.0,0.007,0.0
11/04/2022,06:18:48,0.024,0.0,0.008,0.001
11/04/2022,06:19:47,0.025,0.0,0.008,0.0
11/04/2022,06:20:56,0.026,0.0,0.008,0.0
11/04/2022,06:21:47,0.027,0.0,0.009,0.001
11/04/2022,06:22:47,0.028,0.0,0.009,0.0
11/04/2022,06:23:47,0.029,0.0,0.01,0.001
11/04/2022,06:24:47,0.031,0.0,0.01,0.0
11/04/2022,06:25:47,0.031,0.0,0.011,0.001
11/04/2022,06:26:47,0.032,0.0,0.011,0.0
11/04/2022,06:27:48,0.033,0.0,0.012,0.001
11/04/2022,06:28:56,0.034,0.0,0.012,0.0
11/04/2022,06:30:48,0.035,0.0,0.014,0.002
11/04/2022,06:31:56,0.036,0.0,0.014,0.0
11/04/2022,06:32:47,0.038,0.0,0.015,0.001
11/04/2022,06:33:47,0.039,0.0,0.015,0.0
11/04/2022,06:34:47,0.040,0.0,0.016,0.001
11/04/2022,06:35:47,0.041,0.0,0.017,0.001
11/04/2022,06:36:48,0.043,0.0,0.017,0.0
11/04/2022,06:37:47,0.044,0.0,0.018,0.001
11/04/2022,06:38:47,0.045,0.0,0.019,0.001
11/04/2022,06:39:55,0.047,0.0,0.02,0.001
11/04/2022,06:41:47,0.048,0.0,0.021,0.001
11/04/2022,06:42:47,0.050,0.0,0.022,0.001
11/04/2022,06:43:47,0.052,0.0,0.023,0.001
11/04/2022,06:44:47,0.053,0.0,0.024,0.001
11/04/2022,06:45:47,0.055,0.0,0.025,0.001
11/04/2022,06:46:56,0.056,0.0,0.026,0.001
11/04/2022,06:48:48,0.060,0.0,0.028,0.002
11/04/2022,06:49:46,0.060,0.0,0.028,0.0
11/04/2022,06:50:48,0.063,0.0,0.03,0.002
11/04/2022,06:51:47,0.065,0.0,0.031,0.001
11/04/2022,06:52:47,0.066,0.0,0.032,0.001
11/04/2022,06:53:47,0.069,0.0,0.033,0.001
11/04/2022,06:54:55,0.071,0.0,0.034,0.001
11/04/2022,06:56:47,0.074,0.0,0.036,0.002
11/04/2022,06:57:47,0.076,0.0,0.038,0.002
11/04/2022,06:58:47,0.078,0.0,0.039,0.001
11/04/2022,06:59:39,0.079,0.0,0.04,0.001
11/04/2022,07:00:48,0.081,0.0,0.042,0.002
11/04/2022,07:01:47,0.083,0.0,0.043,0.001
11/04/2022,07:02:47,0.085,0.0,0.044,0.001
11/04/2022,07:03:47,0.086,0.0,0.046,0.002
11/04/2022,07:04:56,0.088,0.0,0.047,0.001
11/04/2022,07:06:56,0.091,0.0,0.05,0.003
11/04/2022,07:08:48,0.095,0.0,0.053,0.003
11/04/2022,07:09:47,0.095,0.0,0.055,0.002
11/04/2022,07:10:47,0.097,0.0,0.056,0.001
11/04/2022,07:11:47,0.099,0.0,0.058,0.002
11/04/2022,07:12:48,0.101,0.0,0.06,0.002
11/04/2022,07:13:47,0.105,0.0,0.062,0.002
11/04/2022,07:15:03,0.109,0.0,0.064,0.002
11/04/2022,07:16:48,0.116,0.0,0.067,0.003
11/04/2022,07:17:47,0.120,0.0,0.069,0.002
11/04/2022,07:18:47,0.126,0.0,0.071,0.002
11/04/2022,07:19:47,0.130,0.0,0.073,0.002
11/04/2022,07:20:47,0.134,0.0,0.075,0.002
11/04/2022,07:21:47,0.140,0.0,0.078,0.003
11/04/2022,07:22:48,0.143,0.0,0.08,0.002
11/04/2022,07:23:56,0.144,0.0,0.083,0.003
11/04/2022,07:25:48,0.152,0.0,0.087,0.004
11/04/2022,07:26:48,0.156,0.0,0.09,0.003
11/04/2022,07:27:50,0.164,0.0,0.093,0.003
11/04/2022,07:28:47,0.166,0.0,0.095,0.002
11/04/2022,07:29:55,0.173,0.0,0.098,0.003
11/04/2022,07:30:47,0.176,0.0,0.101,0.003
11/04/2022,07:31:48,0.178,0.0,0.104,0.003
11/04/2022,07:32:47,0.179,0.0,0.107,0.003
11/04/2022,07:33:47,0.181,0.0,0.11,0.003
11/04/2022,07:34:56,0.187,0.0,0.113,0.003
11/04/2022,07:35:47,0.188,0.0,0.116,0.003
11/04/2022,07:36:47,0.195,0.0,0.119,0.003
11/04/2022,07:37:48,0.197,0.0,0.123,0.004
11/04/2022,07:38:55,0.200,0.0,0.126,0.003
11/04/2022,07:39:46,0.161,0.0,0.128,0.002
11/04/2022,07:40:47,0.199,0.0,0.131,0.003
11/04/2022,07:41:47,0.203,0.0,0.135,0.004
11/04/2022,07:42:47,0.207,0.0,0.138,0.003
11/04/2022,07:43:47,0.209,0.0,0.142,0.004
11/04/2022,07:44:47,0.216,0.0,0.145,0.003
11/04/2022,07:45:48,0.220,1.0,0.149,0.004
11/04/2022,07:46:47,0.223,1.0,0.152,0.003
11/04/2022,07:47:47,0.228,1.0,0.156,0.004
11/04/2022,07:48:47,0.226,1.0,0.16,0.004
11/04/2022,07:49:55,0.234,1.0,0.164,0.004
11/04/2022,07:50:46,0.234,1.0,0.168,0.004
11/04/2022,07:51:47,0.239,1.0,0.172,0.004
11/04/2022,07:52:47,0.245,1.0,0.176,0.004
11/04/2022,07:53:47,0.250,1.0,0.18,0.004
11/04/2022,07:54:47,0.246,1.0,0.184,0.004
11/04/2022,07:55:47,0.254,1.0,0.188,0.004
11/04/2022,07:56:47,0.265,1.0,0.192,0.004
11/04/2022,07:57:47,0.273,1.0,0.197,0.005
11/04/2022,07:58:47,0.272,1.0,0.201,0.004
11/04/2022,07:59:56,0.264,1.0,0.207,0.006
11/04/2022,08:00:56,0.269,1.0,0.211,0.004
11/04/2022,08:01:48,0.269,1.0,0.215,0.004
11/04/2022,08:02:48,0.264,1.0,0.219,0.004
11/04/2022,08:03:47,0.262,1.0,0.224,0.005
11/04/2022,08:04:47,0.264,1.0,0.228,0.004
11/04/2022,08:05:48,0.269,1.0,0.233,0.005
11/04/2022,08:06:47,0.274,1.0,0.237,0.004
11/04/2022,08:07:47,0.286,1.0,0.242,0.005
11/04/2022,08:08:47,0.304,1.0,0.247,0.005
11/04/2022,08:09:47,0.283,1.0,0.251,0.004
11/04/2022,08:10:39,0.276,1.0,0.255,0.004
11/04/2022,08:11:49,0.280,1.0,0.261,0.006
11/04/2022,08:12:47,0.281,1.0,0.266,0.005
11/04/2022,08:13:47,0.280,1.0,0.27,0.004
11/04/2022,08:14:48,0.285,1.0,0.275,0.005
11/04/2022,08:15:56,0.292,1.0,0.28,0.005
11/04/2022,08:16:47,0.298,1.0,0.285,0.005
11/04/2022,08:17:47,0.303,1.0,0.29,0.005
11/04/2022,08:18:48,0.310,1.0,0.295,0.005
11/04/2022,08:19:47,0.305,1.0,0.3,0.005
11/04/2022,08:20:48,0.323,1.0,0.305,0.005
11/04/2022,08:21:47,0.321,1.0,0.31,0.005
11/04/2022,08:22:47,0.325,1.0,0.316,0.006
11/04/2022,08:23:47,0.330,1.0,0.321,0.005
11/04/2022,08:24:48,0.332,1.0,0.327,0.006
11/04/2022,08:25:47,0.334,1.0,0.332,0.005
11/04/2022,08:26:47,0.336,1.0,0.338,0.006
11/04/2022,08:27:48,0.337,1.0,0.343,0.005
11/04/2022,08:28:47,0.337,1.0,0.349,0.006
11/04/2022,08:29:55,0.339,1.0,0.356,0.007
11/04/2022,08:30:44,0.341,1.0,0.36,0.004
11/04/2022,08:31:48,0.345,1.0,0.366,0.006
11/04/2022,08:32:47,0.350,1.0,0.372,0.006
11/04/2022,08:33:47,0.356,1.0,0.378,0.006
11/04/2022,08:34:48,0.365,1.0,0.384,0.006
11/04/2022,08:35:47,0.374,1.0,0.39,0.006
11/04/2022,08:36:47,0.392,1.0,0.396,0.006
11/04/2022,08:37:56,0.426,1.0,0.404,0.008
11/04/2022,08:39:48,0.456,1.0,0.418,0.014
11/04/2022,08:40:47,0.451,1.0,0.425,0.007
11/04/2022,08:41:47,0.474,1.0,0.433,0.008
11/04/2022,08:42:47,0.470,1.0,0.441,0.008
11/04/2022,08:43:47,0.467,1.0,0.449,0.008
11/04/2022,08:44:48,0.477,1.0,0.457,0.008
11/04/2022,08:45:47,0.470,1.0,0.465,0.008
11/04/2022,08:46:48,0.471,1.0,0.472,0.007
11/04/2022,08:47:56,0.482,1.0,0.481,0.009
11/04/2022,08:49:56,0.514,1.0,0.498,0.017
11/04/2022,08:51:48,0.555,1.0,0.515,0.017
11/04/2022,08:52:47,0.587,1.0,0.524,0.009
11/04/2022,08:53:48,0.604,1.0,0.534,0.01
11/04/2022,08:54:48,0.610,1.0,0.544,0.01
11/04/2022,08:55:56,0.630,1.0,0.556,0.012
11/04/2022,08:57:48,0.641,1.0,0.575,0.019
11/04/2022,08:58:55,0.615,1.0,0.587,0.012
11/04/2022,08:59:46,0.595,1.0,0.595,0.008
11/04/2022,09:00:48,0.609,1.0,0.606,0.011
11/04/2022,09:01:48,0.607,1.0,0.616,0.01
11/04/2022,09:02:47,0.619,1.0,0.626,0.01
11/04/2022,09:03:48,0.647,1.0,0.637,0.011
11/04/2022,09:04:47,0.678,2.0,0.648,0.011
11/04/2022,09:05:48,0.701,2.0,0.659,0.011
11/04/2022,09:06:56,0.718,2.0,0.673,0.014
11/04/2022,09:07:45,0.713,2.0,0.683,0.01
11/04/2022,09:08:47,0.727,2.0,0.695,0.012
11/04/2022,09:09:48,0.730,2.0,0.707,0.012
11/04/2022,09:10:47,0.735,2.0,0.719,0.012
11/04/2022,09:11:47,0.673,2.0,0.731,0.012
11/04/2022,09:12:48,0.745,2.0,0.743,0.012
11/04/2022,09:13:48,0.725,2.0,0.756,0.013
11/04/2022,09:14:48,0.708,2.0,0.767,0.011
11/04/2022,09:15:47,0.701,2.0,0.779,0.012
11/04/2022,09:16:48,0.742,2.0,0.791,0.012
11/04/2022,09:17:48,0.738,2.0,0.803,0.012
11/04/2022,09:18:47,0.749,2.0,0.815,0.012
11/04/2022,09:19:48,0.751,2.0,0.828,0.013
11/04/2022,09:20:48,0.765,2.0,0.841,0.013
11/04/2022,09:21:47,0.791,2.0,0.854,0.013
11/04/2022,09:22:48,0.760,2.0,0.867,0.013
11/04/2022,09:23:48,0.761,2.0,0.88,0.013
11/04/2022,09:24:56,0.767,2.0,0.894,0.014
11/04/2022,09:26:56,0.754,2.0,0.919,0.025
11/04/2022,09:28:58,0.752,2.0,0.945,0.026
11/04/2022,09:30:48,0.747,2.0,0.968,0.023
11/04/2022,09:31:48,0.792,2.0,0.981,0.013
11/04/2022,09:32:47,0.740,2.0,0.994,0.013
11/04/2022,09:33:47,0.666,2.0,1.005,0.011
11/04/2022,09:34:48,0.687,2.0,1.016,0.011
11/04/2022,09:35:55,0.759,2.0,1.03,0.014
11/04/2022,09:36:47,0.839,2.0,1.041,0.011
11/04/2022,09:37:47,0.899,2.0,1.056,0.015
11/04/2022,09:38:48,0.938,2.0,1.071,0.015
11/04/2022,09:39:47,0.985,2.0,1.087,0.016
11/04/2022,09:40:47,1.004,2.0,1.104,0.017
11/04/2022,09:41:48,1.013,2.0,1.121,0.017
11/04/2022,09:42:48,1.001,2.0,1.137,0.016
11/04/2022,09:43:47,0.944,2.0,1.154,0.017
11/04/2022,09:44:47,0.909,2.0,1.169,0.015
11/04/2022,09:46:04,0.861,2.0,1.189,0.02
11/04/2022,09:47:48,0.904,2.0,1.214,0.025
11/04/2022,09:48:47,0.944,2.0,1.229,0.015
11/04/2022,09:49:48,1.020,2.0,1.245,0.016
11/04/2022,09:50:48,1.073,2.0,1.263,0.018
11/04/2022,09:51:48,1.067,2.0,1.281,0.018
11/04/2022,09:52:56,1.067,2.0,1.301,0.02
11/04/2022,09:54:56,1.037,2.0,1.336,0.035
11/04/2022,09:56:48,1.019,2.0,1.368,0.032
11/04/2022,09:57:47,1.001,2.0,1.385,0.017
11/04/2022,09:58:48,1.081,2.0,1.403,0.018
11/04/2022,09:59:47,1.109,3.0,1.421,0.018
11/04/2022,10:00:56,1.108,3.0,1.442,0.021
11/04/2022,10:01:47,1.042,2.0,1.457,0.015
11/04/2022,10:02:48,0.995,2.0,1.475,0.018
11/04/2022,10:03:48,0.931,2.0,1.491,0.016
11/04/2022,10:04:48,1.069,2.0,1.507,0.016
11/04/2022,10:05:47,1.126,3.0,1.525,0.018
11/04/2022,10:06:48,1.085,2.0,1.543,0.018
11/04/2022,10:07:48,1.136,3.0,1.562,0.019
11/04/2022,10:08:48,1.023,2.0,1.58,0.018
11/04/2022,10:09:47,1.122,3.0,1.599,0.019
11/04/2022,10:10:56,1.078,2.0,1.619,0.02
11/04/2022,10:11:55,1.111,3.0,1.637,0.018
11/04/2022,10:13:48,1.081,2.0,1.671,0.034
11/04/2022,10:14:47,1.109,3.0,1.689,0.018
11/04/2022,10:15:48,1.054,2.0,1.708,0.019
11/04/2022,10:16:48,1.116,3.0,1.726,0.018
11/04/2022,10:17:48,1.056,2.0,1.744,0.018
11/04/2022,10:18:48,0.983,2.0,1.761,0.017
11/04/2022,10:19:48,0.828,2.0,1.776,0.015
11/04/2022,10:20:48,0.852,2.0,1.791,0.015
11/04/2022,10:21:55,0.804,2.0,1.806,0.015
11/04/2022,10:23:48,0.791,2.0,1.831,0.025
11/04/2022,10:24:48,0.782,2.0,1.844,0.013
11/04/2022,10:25:47,0.809,2.0,1.857,0.013
11/04/2022,10:26:47,0.848,2.0,1.871,0.014
11/04/2022,10:27:48,0.955,2.0,1.886,0.015
11/04/2022,10:28:46,1.078,2.0,1.902,0.016
11/04/2022,10:29:48,1.202,3.0,1.922,0.02
11/04/2022,10:30:47,1.194,3.0,1.942,0.02
11/04/2022,10:31:56,1.322,3.0,1.965,0.023
11/04/2022,10:32:55,1.233,3.0,1.987,0.022
11/04/2022,10:33:47,1.241,3.0,2.004,0.017
11/04/2022,10:34:48,1.225,3.0,2.025,0.021
11/04/2022,10:35:47,1.063,2.0,2.044,0.019
11/04/2022,10:36:47,1.212,3.0,2.063,0.019
11/04/2022,10:37:48,1.135,3.0,2.082,0.019
11/04/2022,10:38:47,1.237,3.0,2.101,0.019
11/04/2022,10:39:56,1.032,2.0,2.123,0.022
11/04/2022,10:41:48,1.018,2.0,2.155,0.032
11/04/2022,10:42:56,0.933,2.0,2.173,0.018
11/04/2022,10:44:50,1.059,2.0,2.204,0.031
11/04/2022,10:45:48,0.957,2.0,2.22,0.016
11/04/2022,10:46:47,0.917,2.0,2.236,0.016
11/04/2022,10:47:47,0.892,2.0,2.251,0.015
11/04/2022,10:48:47,0.905,2.0,2.266,0.015
11/04/2022,10:49:56,0.906,2.0,2.283,0.017
11/04/2022,10:51:48,0.903,2.0,2.311,0.028
11/04/2022,10:52:48,0.901,2.0,2.326,0.015
11/04/2022,10:53:56,1.011,2.0,2.344,0.018
11/04/2022,10:55:48,1.238,3.0,2.379,0.035
11/04/2022,10:56:48,1.169,3.0,2.398,0.019